TimeEST,TemperatureF,Dew PointF,Humidity,Sea Level PressureIn,VisibilityMPH,Wind Direction,Wind SpeedMPH,Gust SpeedMPH,PrecipitationIn,Events,Conditions,WindDirDegrees,DateUTC
12:19 AM,42.8,33.8,70,29.94,10.0,North,10.4,-,N/A,,Overcast,360,2012-11-07 05:19:00
12:54 AM,42.1,33.1,70,29.94,10.0,NNW,8.1,-,N/A,,Overcast,340,2012-11-07 05:54:00
1:38 AM,42.8,33.8,70,29.91,10.0,North,11.5,19.6,N/A,,Mostly Cloudy,10,2012-11-07 06:38:00
1:54 AM,42.1,34.0,73,29.92,10.0,North,13.8,-,N/A,,Overcast,360,2012-11-07 06:54:00
2:54 AM,39.9,34.0,79,29.92,10.0,North,9.2,-,0.00,Rain,Light Rain,360,2012-11-07 07:54:00
3:54 AM,39.0,35.1,86,29.92,10.0,North,9.2,-,0.01,Rain,Light Rain,10,2012-11-07 08:54:00
4:54 AM,39.0,34.0,82,29.92,10.0,North,9.2,-,0.02,,Overcast,360,2012-11-07 09:54:00
5:54 AM,39.0,33.1,79,29.91,10.0,NNE,9.2,-,N/A,,Overcast,20,2012-11-07 10:54:00
6:54 AM,39.0,32.0,76,29.92,10.0,North,9.2,-,N/A,,Overcast,360,2012-11-07 11:54:00
7:54 AM,39.9,32.0,73,29.92,10.0,North,10.4,-,N/A,,Overcast,10,2012-11-07 12:54:00
8:54 AM,42.1,32.0,67,29.92,10.0,North,11.5,-,N/A,,Overcast,360,2012-11-07 13:54:00
9:54 AM,43.0,32.0,65,29.91,10.0,NNW,11.5,-,0.00,,Overcast,340,2012-11-07 14:54:00
10:54 AM,44.1,32.0,63,29.90,10.0,North,9.2,-,N/A,,Overcast,360,2012-11-07 15:54:00
11:54 AM,46.0,33.1,61,29.88,10.0,NNW,9.2,-,N/A,,Overcast,340,2012-11-07 16:54:00
12:19 PM,46.4,33.8,62,29.86,10.0,North,8.1,-,N/A,,Overcast,350,2012-11-07 17:19:00
12:54 PM,46.9,34.0,61,29.87,10.0,North,6.9,-,N/A,,Overcast,10,2012-11-07 17:54:00
1:54 PM,46.9,34.0,61,29.86,10.0,NNW,12.7,-,0.00,,Overcast,340,2012-11-07 18:54:00
2:54 PM,48.0,33.1,56,29.87,10.0,North,12.7,-,N/A,,Overcast,350,2012-11-07 19:54:00
3:54 PM,46.0,32.0,58,29.88,10.0,NNW,10.4,-,N/A,,Overcast,340,2012-11-07 20:54:00
4:54 PM,45.0,30.9,58,29.88,10.0,North,11.5,-,N/A,,Overcast,350,2012-11-07 21:54:00
5:54 PM,43.0,30.9,62,29.90,10.0,North,6.9,-,N/A,,Mostly Cloudy,350,2012-11-07 22:54:00
6:54 PM,44.1,30.9,60,29.91,10.0,North,10.4,-,N/A,,Overcast,350,2012-11-07 23:54:00
7:54 PM,43.0,30.0,60,29.92,10.0,North,12.7,-,N/A,,Overcast,350,2012-11-08 00:54:00
8:54 PM,43.0,28.9,58,29.92,10.0,NNW,10.4,-,N/A,,Overcast,340,2012-11-08 01:54:00
9:54 PM,42.1,28.9,60,29.92,10.0,NNW,10.4,-,0.00,Rain,Light Rain,340,2012-11-08 02:54:00
10:54 PM,42.1,28.9,60,29.93,10.0,NNW,9.2,-,0.00,,Overcast,340,2012-11-08 03:54:00
11:54 PM,42.1,28.0,58,29.93,10.0,NW,5.8,-,N/A,,Mostly Cloudy,320,2012-11-08 04:54:00